Hourly Data Report for July 15, 2021

ALGONQUIN PARK EAST GATE
ONTARIO
Current Station Operator: ECCC - MSC

45°32'00.000" N
78°16'00.000" W
397.00 m
6080192
71581
TNK

Download Data

Hourly Data (July 2021)
Hourly Data Report for July 15, 2021
TIME
LST
Temp Definition
°C
Dew Point Definition
°C
Rel Hum Definition
%
Precip. Amount Definition
mm

Wind Dir Definition
10's deg

Wind Spd Definition
km/h
Visibility Definition
km
Stn Press Definition
kPa
Hmdx Definition


Wind Chill Definition


Weather Definition


00:00 15.4 14.8 96 0.0   0   97.17     LegendNANA
01:00 14.9 14.4 97 0.0   0   97.14     LegendNANA
02:00 14.9 14.5 98 0.0   0   97.18     LegendNANA
03:00 14.1 13.6 97 0.0   0   97.10     LegendNANA
04:00 14.4 14.1 98 0.0   0   97.07     LegendNANA
05:00 15.4 15.1 98 0.0   0   97.03     LegendNANA
06:00 16.6 16.3 98 0.0   0   96.97     LegendNANA
07:00 19.4 18.9 97 0.0 0 1   96.94     LegendNANA
08:00 21.3 18.2 83 0.0 18 2   96.91 27   LegendNANA
09:00 22.7 18.6 78 0.0 19 3   96.83 29   LegendNANA
10:00 23.2 19.1 78 0.0 21 5   96.77 30   LegendNANA
11:00 23.3 19.1 78 0.0 23 8   96.77 30   LegendNANA
12:00 23.5 19.2 77 0.0 22 7   96.71 30   LegendNANA
13:00 22.2 19.6 85 0.2 17 3   96.58 29   LegendNANA
14:00 22.0 20.1 89 1.3 15 3   96.48 30   LegendNANA
15:00 22.0 19.8 88 0.2 14 7   96.31 29   LegendNANA
16:00 21.2 19.9 93 1.3 21 6   96.23 29   LegendNANA
17:00 21.1 20.1 94 2.7 22 5   96.24 29   LegendNANA
18:00 20.9 20.0 94 0.8 23 7   96.27 28   LegendNANA
19:00 20.5 19.3 93 0.0 25 3   96.28 28   LegendNANA
20:00 19.9 18.8 94 0.0 25 4   96.31     LegendNANA
21:00 18.9 17.6 92 0.0 27 3   96.36     LegendNANA
22:00 18.4 17.5 95 0.1 29 4   96.41     LegendNANA
23:00 17.3 16.6 96 0.3 27 2   96.50     LegendNANA

Notes on Data Quality.

Legend

  • E = Estimated
  • M = Missing
  • NA = Not Available*
  • [empty] = Indicates an unobserved value
Date modified: